STARLINK-1888 (47171 NORAD) Tracking and Keplerian Element Data

This shows tracking and keplerian element data for the satellite.

Feedback or suggestion? Click here.




ElementValue
Catalog47171
NameSTARLINK-1888
Epoch Orbit180
Epoch Day99.91667824
Epoch Year2021
RAAN68.6542
Inclination53.054
Eccentricity0.0001751
Argument of Perigee64.3971
Mean Anonmoly11.5595
Mean Motion15.06399719
Decay Rate0.00014468
L11 47171U 20088BB 21099.91667824 .00014468 00000-0 98816-3 0 9990
L22 47171 53.0540 68.6542 0001751 64.3971 11.5595 15.06399719 1809

Live tracking and technical data element details for STARLINK-1888 (NORAD 47171). STARLINK-1888 can be tracked NOW for your location showing map with azimuth and elevation plus other details from your city location.

Track the satellite on the map from your city or location and see movement details for azimuth, elevation, latitude, longitude, range, height, and movement on the map or in text.







IsCatalogInMostPopularTable: catalog: 47171, numindb: 46
Update: records affected: 1



GetName: 47171 STARLINK-1888

Hit Count: updated at: Sat, 10 Apr 2021 19:54:40 GMT